RH
11 10 10 10 11 11 11 11 11 12 12 12 13 15 15 17 20 24 29 39 44 41 36 30 26 24 37 38 48 43 44 31 38 40 40 45 44 50 47 38 38 24 23
16 16 14 14 14 13 14 16 18 19 20 22 24 25 26 28 33 37 37 27 15 9 7 7 9 12 16 16 20 17 15 16 18 31 40 42 43 38 32 30 29 23 22
27 26 24 22 21 21 23 25 26 25 25 25 25 26 30 36 38 29 22 14 8 6 5 5 6 6 7 10 11 12 11 11 13 31 33 25 22 17 10 14 20 17 15
23 23 23 25 25 25 24 24 23 22 23 26 32 35 36 37 32 29 17 10 7 6 5 4 4 4 4 3 4 5 9 9 12 26 22 17 10 6 6 11 12 12 6
21 21 21 21 22 22 22 22 24 28 32 31 27 27 21 16 9 6 5 4 4 4 4 4 4 4 4 4 4 3 4 4 10 26 12 8 5 5 5 6 6 7 7
20 19 20 20 20 20 20 22 24 23 22 21 13 7 6 6 6 5 5 5 5 5 5 5 5 4 4 4 4 4 4 4 7 14 7 6 5 5 5 6 7 8 8
10 20 19 17 19 18 16 17 17 16 12 8 8 6 6 7 6 6 6 6 6 6 6 6 6 5 5 5 5 5 4 4 4 6 5 5 6 6 6 6 7 10 13
6 6 10 14 17 16 14 14 12 11 10 8 9 9 10 11 10 10 9 10 10 10 10 9 8 7 6 6 6 6 5 5 5 5 5 6 6 7 7 8 10 15 14
9 6 6 5 7 12 17 17 16 16 16 15 14 14 14 14 14 14 14 15 15 14 12 12 10 10 9 8 8 7 6 6 6 6 6 6 6 7 8 9 10 19 24
12 9 7 6 6 5 7 11 13 15 14 17 15 13 13 17 18 19 18 17 17 15 11 10 10 8 7 8 8 8 8 7 7 6 6 7 7 8 9 10 12 29 28
11 10 10 9 8 7 6 6 6 7 8 9 11 10 9 9 13 12 16 18 10 9 7 7 6 8 7 7 7 8 8 8 8 8 7 8 8 9 11 11 16 33 29
15 12 11 10 10 9 8 7 7 6 6 6 6 6 6 6 6 6 5 7 7 10 6 6 6 6 6 7 7 7 7 7 7 8 8 8 9 11 13 16 36 32 29
15 16 17 15 13 13 11 8 7 6 7 6 6 6 6 5 6 6 5 5 5 6 6 6 6 6 6 6 6 7 7 7 7 8 9 10 11 14 17 25 43 34 36
15 21 20 19 19 17 13 10 8 7 6 6 6 6 6 6 5 5 5 5 5 5 5 6 7 7 8 7 6 7 7 7 8 9 10 12 12 16 19 46 46 43 41
31 29 31 23 19 20 25 22 12 11 10 9 8 8 7 7 6 6 5 5 5 4 5 6 6 6 6 7 7 7 8 8 9 10 12 13 14 18 22 49 47 60 49
49 91 41 27 26 26 29 27 22 17 15 16 14 10 9 9 7 6 6 6 5 5 4 6 6 6 6 7 8 8 9 10 10 12 14 14 15 19 24 30 42 56 50
98 100 99 55 45 42 33 21 24 26 27 24 24 18 12 9 8 7 6 6 6 6 7 8 8 7 6 7 9 11 13 15 15 14 14 15 17 20 26 30 34 46 48
99 100 96 90 95 97 63 50 50 36 39 42 39 24 10 8 8 8 7 6 6 6 6 5 7 8 8 8 10 13 15 18 18 16 17 19 18 23 29 32 36 38 39
45 98 97 98 93 91 98 90 88 59 51 39 37 20 11 9 7 7 7 7 7 6 6 5 5 6 7 11 15 20 22 25 25 26 29 27 24 26 30 34 43 43 47
53 54 55 90 96 96 96 98 89 62 54 44 53 29 17 9 7 7 7 7 7 7 7 6 6 5 7 12 21 20 20 31 32 30 32 32 35 31 31 34 40 48 67
81 73 72 86 92 88 91 88 94 70 59 49 51 53 49 17 7 6 7 7 9 9 8 7 7 6 7 12 24 20 17 32 28 37 39 38 42 40 36 36 54 53 82
89 96 88 97 97 84 71 77 92 78 78 75 70 62 66 50 10 8 8 11 14 11 9 9 8 7 8 10 22 15 17 18 24 39 47 47 48 48 60 70 56 54 90
78 84 86 79 76 77 83 91 90 88 90 90 79 54 54 66 52 40 17 12 10 11 11 10 9 9 11 14 15 14 15 16 23 38 51 61 64 65 94 92 74 80 92
76 81 83 86 93 99 98 99 100 91 84 81 72 29 21 28 43 50 63 36 14 15 24 23 26 24 32 39 46 55 69 72 84 65 60 80 94 100 92 95 94 94 86
97 99 100 100 97 99 89 88 92 87 80 63 62 62 48 23 40 49 66 58 58 32 50 55 57 55 57 53 57 66 66 98 96 97 99 98 96 98 92 96 92 94 87
96 100 100 100 100 98 100 97 100 86 80 63 59 67 59 48 57 55 55 61 45 55 51 47 50 53 47 41 45 52 78 94 92 99 98 97 97 96 93 96 94 96 92
Wind_Speed
10 10 10 10 9 9 8 8 7 7 6 7 7 8 7 6 6 5 4 3 3 4 5 6 7 9 9 10 9 10 12 14 15 13 14 13 13 19 20 22 23 28 31
8 9 10 11 10 10 10 9 9 8 9 9 9 8 8 6 4 3 2 2 3 5 7 7 8 8 8 8 8 9 10 11 13 13 15 15 16 19 21 24 26 30 31
9 10 10 11 11 10 11 10 9 9 9 8 8 8 9 8 6 5 4 3 4 5 6 7 7 8 9 10 10 10 11 11 12 14 15 16 17 19 22 25 27 30 33
11 11 12 12 12 12 12 12 11 10 10 9 9 9 9 8 8 7 5 4 6 7 7 8 9 10 10 11 12 13 14 14 14 15 17 18 20 21 23 26 28 32 35
10 12 12 13 14 13 13 12 11 11 11 11 10 10 8 8 7 6 5 7 9 10 11 11 11 13 14 15 16 16 18 18 18 19 20 21 22 23 24 27 30 33 35
11 10 11 12 12 13 13 13 13 12 12 12 10 10 10 9 9 8 8 10 11 12 14 15 15 17 17 18 19 19 20 21 21 22 21 23 24 26 27 30 32 34 36
16 15 14 12 12 13 14 14 14 14 14 13 13 13 11 12 12 14 14 16 17 16 17 17 18 19 20 21 22 22 23 23 24 26 26 26 28 29 31 32 33 36 39
20 20 21 21 19 19 18 18 18 18 19 18 17 16 16 16 19 19 20 21 22 22 23 23 21 22 23 24 25 26 27 27 28 28 29 30 31 33 33 34 35 36 39
26 26 27 27 27 26 25 25 25 24 26 24 25 23 22 21 25 26 25 26 27 28 30 29 28 26 28 28 28 29 30 30 30 30 30 32 33 35 36 36 37 38 41
35 32 31 30 31 30 31 31 32 32 32 31 33 33 32 29 29 29 32 32 33 33 34 35 34 32 33 33 33 33 34 34 33 34 33 34 35 35 35 36 37 38 43
39 38 37 35 34 35 35 36 35 36 36 36 36 37 37 36 34 34 31 35 37 37 37 38 38 37 37 36 36 36 38 38 37 37 36 36 36 35 35 36 37 39 44
45 44 42 42 41 39 39 41 42 42 41 40 40 40 40 40 38 39 38 33 36 38 40 39 40 40 41 41 39 39 38 41 40 40 40 39 37 35 35 36 36 38 41
52 50 48 48 47 45 46 47 47 46 45 44 43 42 41 41 41 42 43 40 40 37 39 41 42 42 43 44 43 43 42 43 43 41 41 40 37 34 34 35 37 38 37
56 57 56 56 54 53 53 52 51 51 50 48 47 45 45 43 42 43 43 45 44 42 40 41 42 44 45 46 46 46 45 44 42 41 41 39 39 35 36 34 34 36 38
55 56 59 64 62 62 60 56 55 52 50 50 50 49 49 49 47 46 47 48 49 46 44 42 44 44 45 46 48 48 47 46 44 42 43 41 40 36 36 34 36 37 40
60 55 65 67 70 69 67 63 58 51 52 51 52 54 53 54 54 52 51 51 52 52 50 44 45 46 46 46 48 50 47 47 46 43 43 44 41 38 38 36 36 38 44
70 70 68 74 76 70 69 67 63 56 52 51 53 58 59 58 57 57 55 54 55 55 56 47 48 47 46 48 50 49 49 48 46 45 45 45 43 41 40 40 39 39 44
76 75 81 81 69 65 73 61 56 56 55 54 57 62 62 62 58 58 59 57 58 59 60 59 52 50 49 47 50 50 49 50 47 45 46 47 47 46 44 44 42 42 47
80 61 67 72 71 77 77 62 54 56 55 60 61 65 63 64 61 60 61 61 60 61 62 62 60 57 52 50 49 49 50 51 50 49 49 50 51 50 48 47 45 44 49
86 89 89 69 72 72 62 70 65 53 55 59 57 60 64 65 64 64 65 64 63 64 63 62 61 62 56 53 52 50 50 53 55 57 55 54 53 55 51 50 49 46 52
82 84 78 73 79 77 74 70 61 64 59 60 64 61 55 61 62 62 63 64 61 59 60 60 61 63 59 56 54 53 55 56 58 59 59 58 58 58 53 52 50 47 54
84 83 85 86 82 80 80 73 59 62 66 70 63 63 60 55 55 59 58 58 59 60 62 62 61 62 59 58 57 57 60 63 67 61 64 65 62 57 56 54 53 51 51
86 85 89 92 89 79 76 73 73 75 71 64 62 63 62 61 55 54 63 60 55 54 55 57 58 57 57 57 59 61 65 67 72 67 70 72 65 59 56 55 54 54 46
90 91 92 91 86 82 80 76 75 80 77 74 68 63 65 64 67 63 66 59 61 62 60 55 57 55 59 58 59 63 69 77 80 79 74 75 68 63 60 56 52 53 47
87 86 86 87 91 93 94 80 78 85 81 74 76 71 69 67 68 69 68 69 65 58 60 63 61 61 62 66 67 70 74 60 66 95 70 80 67 68 61 58 52 53 45
90 89 88 83 84 75 62 63 71 85 85 85 82 79 77 80 82 78 74 76 74 70 72 68 68 70 69 71 75 75 65 69 68 61 62 64 71 60 51 55 50 52 51
Wind_Direction
210 216 220 220 222 220 220 221 224 230 235 236 244 259 267 268 278 287 299 309 319 327 333 335 335 338 341 342 340 335 342 355 358 2 3 358 338 331 333 327 325 332 331
223 226 227 229 230 235 233 229 232 234 237 239 240 243 252 259 253 242 242 292 330 355 359 1 358 350 343 342 338 342 341 346 353 345 341 339 340 331 332 329 329 330 330
231 233 234 234 233 232 235 230 225 227 233 235 230 218 208 212 226 235 250 286 335 350 351 350 345 339 342 342 342 344 342 342 344 340 335 337 334 333 330 330 329 329 329
235 235 238 237 235 234 238 236 228 224 223 213 215 216 217 219 229 250 275 311 322 328 328 323 326 326 329 328 330 331 329 331 330 328 327 329 329 330 331 327 326 328 329
236 236 233 236 238 235 231 231 224 210 206 215 228 234 234 244 257 269 295 307 304 308 308 314 316 316 317 317 319 320 321 323 321 323 322 322 320 321 323 326 328 326 325
250 245 240 232 227 227 224 221 221 220 216 222 229 234 241 251 265 280 286 288 290 295 298 302 307 310 312 313 313 313 312 312 312 313 316 316 317 319 320 321 323 325 326
244 251 253 248 234 228 228 231 235 239 241 239 243 253 257 267 277 283 284 284 284 285 285 290 297 301 305 306 307 308 306 306 308 312 314 314 316 317 318 319 320 324 327
256 249 250 254 251 251 253 249 249 252 254 256 255 259 268 275 275 278 279 283 287 291 293 296 298 299 300 301 304 305 305 306 305 306 309 310 312 314 316 318 319 323 322
253 252 250 250 253 254 256 255 253 252 255 258 261 263 259 264 274 278 280 284 287 291 294 295 296 297 297 299 300 300 299 300 302 304 304 305 306 307 313 315 316 322 322
256 253 253 256 256 255 254 253 255 257 259 261 264 267 267 264 265 271 280 282 285 288 291 293 294 296 295 296 298 300 300 300 299 298 299 300 301 302 310 310 313 318 323
253 256 257 255 256 257 257 258 257 256 258 260 263 266 270 273 270 270 264 275 283 287 289 289 292 294 293 293 294 294 294 295 296 297 297 297 297 303 306 306 312 319 323
250 250 250 255 257 257 258 256 257 260 261 263 265 267 270 272 274 276 278 273 275 278 285 288 289 289 290 290 290 289 290 292 293 294 295 295 296 298 303 307 309 317 322
249 251 251 249 249 251 253 256 258 258 260 264 266 268 269 272 272 274 277 278 277 277 279 284 287 287 288 289 288 288 289 290 292 292 291 292 293 297 300 305 309 318 320
248 250 252 251 250 248 250 253 256 259 263 265 268 270 273 275 275 276 276 276 276 277 278 281 283 287 288 288 288 287 287 290 291 290 289 291 293 296 298 304 313 320 325
243 248 250 251 252 252 252 250 251 255 260 263 266 269 272 275 275 276 278 278 278 278 278 280 284 285 287 289 290 290 290 290 291 290 288 288 289 291 295 298 310 315 321
235 240 247 248 247 247 249 252 252 254 259 262 264 264 265 269 270 272 274 278 279 280 280 281 282 284 284 284 285 287 286 287 288 287 286 285 287 287 291 295 302 307 310
226 230 235 243 244 243 246 247 251 252 253 260 265 264 262 263 266 268 271 274 277 280 282 282 282 282 284 284 283 283 285 287 286 288 286 284 284 286 286 291 298 305 310
245 249 243 243 241 248 245 245 247 249 255 261 268 268 266 265 264 267 268 270 273 278 280 282 281 282 281 280 281 282 283 285 286 287 286 285 284 284 285 287 295 299 301
246 250 252 244 246 244 253 235 245 250 259 260 267 266 266 266 267 268 271 272 273 274 276 278 280 279 281 279 279 280 283 283 283 282 284 286 285 283 285 286 291 300 302
248 251 256 257 253 248 246 238 240 262 265 258 272 266 265 265 266 267 268 270 272 273 273 275 276 277 277 277 278 281 283 281 279 279 282 284 284 281 283 285 290 300 299
248 252 259 261 262 271 272 267 265 256 267 267 271 267 269 265 263 266 267 268 270 271 271 272 273 275 275 277 278 281 282 280 279 278 281 282 280 280 283 284 288 292 294
246 251 258 258 262 266 268 271 265 266 266 267 266 265 269 267 264 264 266 267 269 270 271 271 272 274 276 280 281 282 281 279 277 279 277 276 277 279 282 284 286 287 299
251 251 254 255 259 259 260 257 257 262 266 262 262 265 267 269 266 270 267 267 264 266 270 271 272 275 276 278 278 281 283 280 279 275 273 273 274 275 278 281 284 287 298
254 255 256 257 258 260 261 255 257 264 266 264 257 261 266 267 269 268 267 268 266 267 269 268 270 272 274 277 280 283 286 279 278 275 271 269 267 269 272 274 281 284 296
250 249 250 254 258 258 263 263 262 261 260 262 258 263 269 269 264 262 263 267 263 262 265 268 271 271 275 280 279 280 286 279 295 276 259 269 259 262 271 275 279 282 291
250 250 255 255 254 251 247 250 257 268 267 265 263 262 267 271 276 267 263 262 263 258 261 265 269 272 274 275 277 280 285 284 286 257 271 260 269 265 283 279 279 284 291